Location: Nelson
(41.2830°S, 173.2830°E)
Time: 18:48:47
(UTC+12:00)

Cosmos 540 Rocket - Visible Passes

Search period start: 21 April 2019 00:00
Search period end: 01 May 2019 00:00
Orbit: 740 x 754 km, 74.1° (Epoch: 20 April)

Date Brightness Start Highest point End Pass type
(mag) Time Alt. Az. Time Alt. Az. Time Alt. Az.
21 Apr 6.1 04:04:31 10° SSE 04:07:56 17° SE 04:11:19 10° E visible
21 Apr 3.4 05:44:53 10° SSW 05:50:00 63° WNW 05:55:05 10° N visible
21 Apr 3.9 18:36:55 10° NNE 18:41:37 38° ENE 18:46:22 10° SE visible
21 Apr 5.4 20:18:58 10° WNW 20:23:18 27° WSW 20:27:40 10° S visible
22 Apr 3.8 05:01:31 10° SSW 05:06:42 66° ESE 05:11:48 10° NNE visible
22 Apr 4.3 19:34:46 10° NW 19:39:45 49° WSW 19:44:47 10° S visible
23 Apr 5.0 04:19:19 14° S 04:23:13 34° ESE 04:27:54 10° NE visible
23 Apr 4.3 06:00:17 10° SW 06:04:40 28° W 06:09:02 10° NNW visible
23 Apr 3.4 18:51:14 10° NNW 18:56:22 85° ENE 19:01:34 10° SSE visible
23 Apr 6.3 20:36:11 10° W 20:38:41 13° SW 20:41:12 10° SSW visible
24 Apr 5.8 03:38:59 19° SE 03:39:33 19° ESE 03:43:12 10° ENE visible
24 Apr 3.4 05:18:57 28° SW 05:21:32 56° WNW 05:26:34 10° N visible
24 Apr 3.9 18:08:20 10° N 18:13:09 42° ENE 18:18:00 10° SSE visible
24 Apr 5.6 19:50:46 10° WNW 19:54:55 24° WSW 19:59:06 10° S visible
25 Apr 3.6 04:38:33 72° E 04:38:33 72° E 04:43:24 10° NNE visible
25 Apr 5.1 06:18:31 12° W 06:19:08 13° W 06:21:16 10° WNW visible
25 Apr 4.6 19:06:25 10° NW 19:11:20 44° WSW 19:16:17 10° S visible
26 Apr 5.7 03:58:01 19° ENE 03:58:01 19° ENE 03:59:36 10° NE visible
26 Apr 4.8 05:37:59 21° NW 05:37:59 21° NW 05:40:21 10° NNW visible
26 Apr 3.5 18:22:46 10° NNW 18:27:55 86° WSW 18:33:07 10° SSE visible
26 Apr 6.4 20:08:19 10° WSW 20:10:20 12° SW 20:12:21 10° SSW visible
27 Apr 5.5 04:57:17 14° N 04:57:17 14° N 04:58:02 10° N visible
27 Apr 5.8 19:22:34 10° WNW 19:26:31 22° WSW 19:30:31 10° S visible
28 Apr 4.8 18:38:05 10° NW 18:42:55 40° WSW 18:47:47 10° S visible
29 Apr 6.4 19:40:40 10° WSW 19:41:59 11° SW 19:43:19 10° SW visible
30 Apr 5.9 18:54:25 10° WNW 18:58:09 20° WSW 19:01:55 10° S visible
